[[{"header":{"parameterUnit":"m.s-1","parameterCategory":1,"la1":30.2991,"la2":30.254,"lo1":-89.0895,"lo2":-89.0444,"dy":0.0017,"dx":0.0017,"nx":28,"ny":28,"refTime":"2024-03-13T09:00:00:Z","depth":0,"parameterNumber":2,"parameterNumberName":"U-component_of_WINDS"},"data":[0,0,0,0,0,0,0,0,0,0,0,0,0,0,0,0,0,0,0,0,0,0,0,0,0,0,0,0,0,0,0,0,0,0,0,0,0,0,0,0,0,0,0,0,0,0,0,0,0,0,0,0,0,0,0,0,0,0,-4.5109,-4.511,0,-4.514,-4.514,-4.5141,-4.5042,-4.5039,-4.5036,-4.5034,-4.5064,-4.5067,-4.5071,0,0,0,0,0,0,0,0,0,0,0,0,0,-4.4967,-4.497,-4.5109,-4.511,-4.511,-4.514,-4.514,-4.5141,-4.5043,-4.5039,-4.5036,-4.5032,-4.5062,-4.5067,-4.5071,0,0,0,0,0,0,0,0,0,0,0,0,0,-4.5016,-4.4971,-4.5109,-4.5065,-4.5061,-4.514,-4.514,-4.5141,-4.5044,-4.5039,-4.5035,-4.5031,-4.5061,-4.5066,-4.5071,-4.5194,0,0,-4.5088,-4.509,0,0,0,0,0,0,0,0,-4.5014,-4.5022,-4.5071,-4.5068,-4.5064,-4.5083,-4.5101,-4.5159,-4.5045,-4.505,-4.5034,-4.5028,-4.5074,-4.5078,-4.5093,-4.5195,-4.5196,-4.5088,-4.5092,-4.5094,-4.5095,0,0,0,0,0,0,0,-4.501,-4.502,-4.5121,-4.5072,-4.5068,-4.5044,-4.5046,-4.5111,-4.5086,-4.5049,-4.5042,-4.5047,-4.5071,-4.5088,-4.5093,-4.5197,-4.5088,-4.5093,-4.5096,-4.5098,-4.5403,-4.5407,0,0,0,0,0,0,-4.5013,-4.5018,-4.512,-4.5122,-4.5027,-4.505,-4.5052,-4.5081,-4.5086,-4.5082,-4.5051,-4.5043,-4.5081,-4.5087,-4.5094,-4.5237,-4.5094,-4.5099,-4.5102,-4.5398,-4.5404,-4.5409,0,0,0,0,0,0,-4.501,-4.5023,-4.5119,-4.5068,-4.5079,-4.5057,-4.5091,-4.5084,-4.5101,-4.5087,-4.5082,-4.5073,-4.5078,-4.5086,-4.517,-4.5237,-4.5101,-4.5106,-4.5392,-4.54,-4.5406,-4.5525,0,0,0,0,0,0,-4.5006,-4.5022,-4.5068,-4.507,-4.5082,-4.5195,-4.5095,-4.5088,-4.5111,-4.51,-4.5106,-4.5103,-4.5075,-4.5163,-4.5175,-4.5242,-4.511,-4.5386,-4.5395,-4.5404,-4.5515,-4.5536,-4.5553,0,0,0,0,0,-4.5002,-4.51,-4.5071,-4.5084,-4.5138,-4.5199,-4.5206,-4.5172,-4.5117,-4.5163,-4.5154,-4.5103,-4.5228,-4.5172,-4.5186,-4.5254,-4.5381,-4.5393,-4.5403,-4.5507,-4.5532,-4.5553,0,0,0,0,0,0,-4.5105,-4.5099,-4.5067,-4.5169,-4.5185,-4.5182,-4.5239,-4.5199,-4.5231,-4.5219,-4.5176,-4.5178,-4.527,-4.5271,-4.5208,-4.5374,-4.5295,-4.531,-4.5369,-4.5393,-4.5412,-4.5408,-4.5115,0,0,0,0,0,-4.514,-4.519,-4.5182,-4.5272,-4.5283,-4.526,-4.5285,-4.5258,-4.5273,-4.5279,-4.5276,-4.5293,-4.5336,-4.5365,-4.5404,-4.5516,-4.5516,-4.5571,-4.559,-4.5605,-4.5617,-4.5678,-4.5702,-4.5445,-4.5445,-4.5445,0,0,-4.5212,-4.5215,-4.5248,-4.5293,-4.5303,-4.5356,-4.5266,-4.5325,-4.5364,-4.5288,-4.5366,-4.5366,-4.5382,-4.5481,-4.5524,-4.5484,-4.5689,-4.5619,-4.5632,-4.5635,-4.5691,-4.5716,-4.5737,-4.5452,-4.5451,-4.545,0,0,-4.5369,-4.5377,-4.5453,-4.5466,-4.5482,-4.5467,-4.5486,-4.549,-4.5487,-4.5566,-4.551,-4.5557,-4.5632,-4.5645,-4.5662,-4.583,-4.5784,-4.5844,-4.5942,-4.6001,-4.6022,-4.6039,-4.6098,-4.612,-4.5857,-4.5857,-4.5857,0,-4.5456,-4.5533,-4.5497,-4.5561,-4.5583,-4.5519,-4.5596,-4.561,-4.5638,-4.5655,-4.561,-4.5705,-4.5711,-4.5812,-4.5854,-4.587,-4.589,-4.5841,-4.6022,-4.6039,-4.6055,-4.6111,-4.6133,-4.5864,-4.5863,-4.5862,-4.5862,0,-4.5638,-4.5693,-4.5753,-4.5783,-4.5812,-4.5883,-4.5858,-4.5892,-4.5864,-4.5854,-4.5936,-4.5942,-4.5982,-4.6005,-4.5977,-4.6103,-4.6078,-4.6029,-4.5948,-4.6087,-4.6139,-4.616,-4.5874,-4.5871,-4.5869,-4.5868,0,0,-4.5857,-4.587,-4.5892,-4.5906,-4.5921,-4.5963,-4.6032,-4.6071,-4.6101,-4.6124,-4.618,-4.6248,-4.6203,-4.6222,-4.6196,-4.6249,-4.6381,-4.6193,-4.6193,-4.6227,-4.6521,-4.6556,-4.6581,-4.6353,-4.6357,-4.636,-4.6519,0,-4.6011,-4.6127,-4.61,-4.6215,-4.6266,-4.6208,-4.6268,-4.6285,-4.6279,-4.6321,-4.6314,-4.6362,-4.63,-4.6311,-4.6361,-4.6355,-4.6439,-4.6343,-4.6403,-4.6406,-4.6399,-4.6608,-4.6645,-4.6795,-4.6539,-4.6542,-4.6545,0,-4.6204,-4.6236,-4.6358,-4.6367,-4.6387,-4.6441,-4.6476,-4.6518,-4.6536,-4.6528,-4.6553,-4.6517,-4.6586,-4.6508,-4.6602,-4.6537,-4.6561,-4.6563,-4.6568,-4.6569,-4.6482,-4.6614,-4.6842,-4.6863,-4.6577,-4.6574,-4.6572,0,-4.635,-4.6424,-4.6506,-4.652,-4.6533,-4.6573,-4.658,-4.6594,-4.6621,-4.6653,-4.6669,-4.6709,-4.673,-4.6761,-4.6738,-4.6683,-4.6836,-4.6756,-4.683,-4.6831,-4.6862,-4.686,-4.7094,-4.6882,-4.6882,-4.6881,-4.6881,0,-4.6523,-4.6599,-4.6572,-4.6622,-4.6706,-4.6675,-4.6759,-4.676,-4.6774,-4.6824,-4.6778,-4.6825,-4.6793,-4.6839,-4.6822,-4.6902,-4.6912,-4.6908,-4.6901,-4.691,-4.6911,-4.6923,-4.6911,-4.6887,-4.6886,-4.6885,-4.6884,0,-4.6697,-4.6683,-4.6768,-4.6776,-4.6779,-4.6841,-4.6847,-4.6894,-4.6887,-4.6951,-4.6964,-4.6951,-4.7003,-4.6984,-4.7039,-4.7028,-4.713,-4.7112,-4.7124,-4.7118,-4.7193,-4.7186,-4.7442,-4.7473,-4.7243,-4.7245,-4.7247,0,-4.6807,-4.6864,-4.6879,-4.691,-4.6921,-4.6971,-4.6998,-4.6971,-4.7002,-4.7029,-4.7074,-4.7122,-4.7158,-4.7243,-4.7239,-4.7282,-4.7262,-4.735,-4.7268,-4.7276,-4.7262,-4.7258,-4.7263,-4.7365,-4.7367,-4.7369,-4.7371,0,-4.7003,-4.6994,-4.7035,-4.7076,-4.7111,-4.7141,-4.7167,-4.7195,-4.717,-4.7207,-4.7259,-4.7288,-4.7346,-4.7394,-4.7433,-4.744,-4.7402,-4.7398,-4.7417,-4.7425,-4.7429,-4.7426,-4.7165,-4.7391,-4.7389,-4.7387,-4.7386,-4.7386,-4.7147,-4.7196,-4.7215,-4.7263,-4.7281,-4.7307,-4.7352,-4.7352,-4.7395,-4.744,-4.7422,-4.7483,-4.7503,-4.7551,-4.7566,-4.7613,-4.7579,-4.7607,-4.7614,-4.7621,-4.763,-4.7424,-4.762,-4.762,-4.7619,-4.7619,-4.7618,0,-4.7339,-4.7349,-4.7395,-4.7434,-4.7473,-4.7436,-4.7464,-4.7499,-4.7553,-4.7575,-4.7613,-4.7675,-4.7723,-4.7725,-4.7769,-4.7807,-4.7791,-4.7819,-4.7815,-4.7817,-4.7658,-4.7636,-4.7832,-4.7832,-4.7832,-4.7832,-4.7832,-4.7832,-4.7443,-4.7524,-4.7518,-4.7608,-4.7618,-4.7678,-4.7697,-4.7721,-4.7739,-4.781,-4.785,-4.7852,-4.7866,-4.7912,-4.7954,-4.7954,-4.7972,-4.8007,-4.7999,-4.785,-4.7828,-4.7808,-4.7787,-4.8012,-4.8012,-4.8154,-4.8156,-4.8157]},{"header":{"parameterUnit":"m.s-1","parameterCategory":1,"la1":30.2991,"la2":30.254,"lo1":-89.0895,"lo2":-89.0444,"dy":0.0017,"dx":0.0017,"nx":28,"ny":28,"refTime":"2024-03-13T09:00:00:Z","depth":0,"parameterNumber":3,"parameterNumberName":"V-component_of_WINDS"},"data":[0,0,0,0,0,0,0,0,0,0,0,0,0,0,0,0,0,0,0,0,0,0,0,0,0,0,0,0,0,0,0,0,0,0,0,0,0,0,0,0,0,0,0,0,0,0,0,0,0,0,0,0,0,0,0,0,0,0,2.7307,2.7307,0,2.7283,2.7282,2.7282,2.7281,2.7282,2.7282,2.7282,2.7253,2.7252,2.725,0,0,0,0,0,0,0,0,0,0,0,0,0,2.7351,2.735,2.7307,2.7307,2.7306,2.7283,2.7282,2.7282,2.7281,2.7282,2.7282,2.7282,2.7253,2.7252,2.725,0,0,0,0,0,0,0,0,0,0,0,0,0,2.733,2.735,2.7307,2.7303,2.7303,2.7283,2.7282,2.7282,2.7281,2.7282,2.7282,2.7282,2.7253,2.7252,2.725,2.7231,0,0,2.7245,2.7245,0,0,0,0,0,0,0,0,2.7331,2.7328,2.7304,2.7303,2.7303,2.7286,2.7287,2.7265,2.7281,2.7289,2.7282,2.7283,2.7263,2.7261,2.7255,2.723,2.7228,2.7245,2.7244,2.7243,2.7243,0,0,0,0,0,0,0,2.7333,2.7329,2.7297,2.7304,2.7303,2.7302,2.73,2.7283,2.7273,2.7288,2.7288,2.7286,2.7263,2.7256,2.7254,2.7228,2.7245,2.7244,2.7243,2.7242,2.719,2.7189,0,0,0,0,0,0,2.7335,2.7331,2.7298,2.7296,2.7319,2.7301,2.7298,2.7291,2.7274,2.7272,2.7285,2.7286,2.7259,2.7256,2.7253,2.7232,2.7243,2.7242,2.7241,2.719,2.719,2.7189,0,0,0,0,0,0,2.7336,2.7332,2.7299,2.7314,2.7309,2.73,2.7291,2.729,2.7284,2.7272,2.727,2.7281,2.7259,2.7255,2.7238,2.7231,2.7241,2.724,2.7191,2.719,2.7189,2.7188,0,0,0,0,0,0,2.7337,2.7333,2.7325,2.7313,2.7309,2.7284,2.7291,2.7289,2.7281,2.7282,2.7267,2.7265,2.7259,2.724,2.7236,2.7229,2.7238,2.7191,2.719,2.719,2.7188,2.7187,2.7186,0,0,0,0,0,2.7339,2.7324,2.7325,2.7321,2.7299,2.7284,2.7281,2.7276,2.7281,2.7273,2.7267,2.7265,2.7232,2.7238,2.7234,2.7226,2.7192,2.7191,2.719,2.7189,2.7187,2.7186,0,0,0,0,0,0,2.7332,2.7322,2.7323,2.7304,2.7295,2.7284,2.7274,2.7274,2.7263,2.7263,2.7257,2.7254,2.7237,2.7229,2.7236,2.7208,2.7212,2.7211,2.7213,2.7212,2.7211,2.7213,2.7237,0,0,0,0,0,2.7329,2.7318,2.731,2.7293,2.7289,2.7283,2.7276,2.7274,2.7264,2.7259,2.7251,2.724,2.7228,2.7219,2.7207,2.7188,2.7186,2.718,2.7179,2.7178,2.7177,2.7169,2.7167,2.7186,2.7186,2.7186,0,0,2.7321,2.7314,2.7307,2.7292,2.7285,2.7274,2.7279,2.7266,2.7258,2.7257,2.7241,2.7234,2.7222,2.7205,2.7196,2.7198,2.7171,2.7177,2.7177,2.7175,2.7168,2.7166,2.7164,2.7185,2.7186,2.7186,0,0,2.7301,2.7295,2.7282,2.7276,2.7267,2.7263,2.7261,2.725,2.7247,2.7231,2.7231,2.7221,2.7199,2.7192,2.7185,2.7168,2.7167,2.7164,2.7158,2.715,2.7149,2.7147,2.7143,2.7141,2.7162,2.7162,2.7162,0,2.7292,2.7277,2.7275,2.7264,2.7258,2.7259,2.7247,2.7241,2.7227,2.7223,2.7225,2.7201,2.7193,2.7175,2.7172,2.7165,2.7163,2.7165,2.7149,2.7148,2.7147,2.7142,2.714,2.7162,2.7162,2.7162,2.7162,0,2.7267,2.7256,2.7247,2.7238,2.7231,2.7218,2.7216,2.7209,2.7208,2.7205,2.719,2.7181,2.7169,2.7165,2.7162,2.7148,2.7149,2.7151,2.7155,2.7145,2.7141,2.7139,2.7162,2.7162,2.7162,2.7162,0,0,2.7239,2.7232,2.7229,2.7226,2.7218,2.7209,2.7199,2.7189,2.7184,2.7176,2.7167,2.7151,2.7154,2.7146,2.7144,2.7137,2.7127,2.714,2.714,2.7139,2.7113,2.7112,2.711,2.7127,2.7127,2.7127,2.7114,0,2.7219,2.7202,2.7202,2.7185,2.7177,2.718,2.7171,2.7165,2.7163,2.7155,2.7151,2.7141,2.7145,2.7141,2.7135,2.713,2.7122,2.7131,2.7119,2.7119,2.7122,2.7107,2.7106,2.7094,2.7112,2.7112,2.7112,0,2.7193,2.7187,2.7171,2.7168,2.7164,2.7156,2.7149,2.7142,2.7136,2.7135,2.7129,2.7129,2.7119,2.7125,2.7111,2.7117,2.7113,2.711,2.711,2.7108,2.7114,2.7106,2.709,2.7088,2.7109,2.7109,2.7109,0,2.7176,2.7164,2.7154,2.7151,2.7146,2.7141,2.7139,2.7134,2.713,2.7123,2.7121,2.7113,2.7108,2.7102,2.71,2.7104,2.7088,2.7092,2.7087,2.7087,2.7082,2.7082,2.7065,2.7079,2.7079,2.7079,2.7079,0,2.7154,2.7144,2.7147,2.714,2.713,2.7131,2.7121,2.7119,2.7116,2.7109,2.7111,2.7104,2.7102,2.7096,2.7094,2.7085,2.7082,2.7081,2.7081,2.7081,2.7081,2.7078,2.7079,2.7079,2.7079,2.7079,2.7079,0,2.7133,2.7134,2.7123,2.7122,2.7121,2.7114,2.7113,2.7107,2.7106,2.7098,2.7096,2.7094,2.7087,2.7086,2.7076,2.7075,2.7065,2.7065,2.7067,2.7067,2.7062,2.7063,2.7042,2.704,2.7054,2.7054,2.7054,0,2.7119,2.7112,2.7111,2.7108,2.7107,2.7101,2.7098,2.7099,2.7096,2.7092,2.7086,2.708,2.7075,2.7064,2.7062,2.7055,2.7056,2.7049,2.7054,2.7056,2.7057,2.7058,2.7058,2.7048,2.7047,2.7047,2.7047,0,2.7094,2.7097,2.7092,2.7089,2.7086,2.7083,2.708,2.7078,2.7079,2.7075,2.707,2.7066,2.7059,2.7053,2.7048,2.7045,2.7047,2.7046,2.7045,2.7045,2.7047,2.7047,2.7065,2.7046,2.7046,2.7046,2.7046,2.7046,2.7077,2.7072,2.7072,2.7068,2.7067,2.7066,2.7062,2.7062,2.7058,2.7054,2.7055,2.7049,2.7047,2.7041,2.7038,2.7034,2.7035,2.7033,2.7032,2.7032,2.7032,2.7048,2.7032,2.7032,2.7032,2.7032,2.7033,0,2.7053,2.7055,2.7051,2.705,2.7047,2.7052,2.705,2.7048,2.7043,2.7042,2.7038,2.7033,2.7029,2.7028,2.7024,2.7021,2.7022,2.702,2.702,2.702,2.703,2.7032,2.7019,2.7019,2.7019,2.7019,2.7019,2.7019,2.7041,2.7034,2.7037,2.7031,2.7032,2.7028,2.7027,2.7026,2.7026,2.7021,2.7018,2.7019,2.7018,2.7015,2.7011,2.7011,2.701,2.7008,2.7008,2.7017,2.7018,2.702,2.7022,2.7007,2.7007,2.6998,2.6998,2.6998]}]]